Regional Weather Roundup
Issued by NWS Sterling, VA

Home | Current Version | Previous Version | Graphics & Text | Print | Product List | Glossary On
Versions: 1 2 3 4 5 6 7 8 9 10 11 12 13 14 15 16 17 18 19 20 21 22 23 24 25 26 27 28 29 30 31 32 33 34 35 36 37 38 39 40 41 42 43 44 45 46 47 48 49 50
000
ASUS41 KLWX 011810
RWRLWX

REGIONAL WEATHER ROUNDUP
NATIONAL WEATHER SERVICE BALTIMORE MD/WASHINGTON DC
200 PM EDT WED JUL 01 2015

Note: "FAIR" indicates few or no clouds below 12,000 feet
with no significant weather and/or obstructions to visibility.
 TC=TEMPERATURE CELSIUS

 * =Non NWS site. Station does not report precipitation (e.g. rain,
    snow, etc.), thunder, or fog.

DCZ001-MDZ009-015-VAZ040>042-051-053>054-011900-
WASHINGTON METRO

CITY           SKY/WX    TMP DP  RH WIND       PRES   REMARKS
WASHINGTON NAT MOSUNNY   85  63  47 SW10      29.86F
DULLES         PTSUNNY   83  63  50 SW8G16    29.87F
ANDREWS AFB    SUNNY     83  71  68 SW8       29.86F
QUANTICO       PTSUNNY   84  63  49 W8        29.88F
COLLEGE PARK*  MOSUNNY   84  63  48 SW8       29.85F
LEESBURG*      MOSUNNY   82  64  54 SW7       29.88S
MANASSAS*      MOSUNNY   82  63  51 CALM      29.87F
GAITHERSBURG*  PTSUNNY   81  63  54 W6        29.91S

$$

MDZ006>007-011-014-011900-
BALTIMORE METRO

CITY           SKY/WX    TMP DP  RH WIND       PRES   REMARKS
BWI AIRPORT    MOSUNNY   83  64  52 W10G17    29.84F
MD SCIENCE CTR   N/A     85  63  47 MISG      29.85F
MARTIN STATE   MOSUNNY   82  66  57 W9G16     29.86F
ANNAPOLIS      PTSUNNY   82  64  54 SW7       29.85F
FORT MEADE*    SUNNY     81  66  61 W7        29.88F

$$

MDZ012-015-019>023-011900-
MARYLAND EASTERN SHORE

CITY           SKY/WX    TMP DP  RH WIND       PRES   REMARKS
OCEAN CITY     MOSUNNY   85  67  54 VRB6G20   29.86F
SALISBURY      SUNNY     84  65  52 W8G20     29.87S
BAY BRIDGE AP*   N/A     82  63  51 SW8       29.86F
CAMBRIDGE*     SUNNY     82  63  51 S5        29.87S
EASTON*        SUNNY     84  66  54 W9        29.90F

$$

MDZ017>025-011900-
SOUTHERN MARYLAND

CITY           SKY/WX    TMP DP  RH WIND       PRES   REMARKS
PATUXENT RIVER MOSUNNY   83  66  56 VRB7      29.87F
ST INIGOES     SUNNY     83  69  62 SW6       29.87F
LEONARDTOWN*   SUNNY     81  64  57 SW8       29.89F

$$

MDZ003>005-011900-
NORTH CENTRAL MARYLAND

CITY           SKY/WX    TMP DP  RH WIND       PRES   REMARKS
FREDERICK*     PTSUNNY   82  70  65 W10       29.89F
HAGERSTOWN APT PTSUNNY   80  61  52 W12       29.87S
WESTMINSTER*   MOSUNNY   81  63  54 W15       29.87F

$$

MDZ501>502-011900-
WESTERN MARYLAND

CITY           SKY/WX    TMP DP  RH WIND       PRES   REMARKS
OAKLAND*       MOSUNNY   66 N/A N/A W9G22     29.99S
CUMBERLAND*    MOSUNNY   81  59  47 W6        29.93S

$$

VAZ025>031-011900-
SHENANDOAH VALLEY

CITY           SKY/WX    TMP DP  RH WIND       PRES   REMARKS
WINCHESTER*    CLOUDY    82  63  51 SW6       29.88S
FRONT ROYAL*   FAIR      81  64  57 S5        29.87F
LURAY*         FAIR      84  64  51 S6        29.89S
NEW MARKET*    MOCLDY    80  65  61 S5        29.87F
STAUNTON*      MOSUNNY   83  65  53 SW15      29.93F
WAYNESBORO*    MOCLDY    78  64  61 SW10G18   29.95S

$$

WVZ021-048>050-054>055-011900-
EASTERN WEST VIRGINIA PANHANDLE

CITY           SKY/WX    TMP DP  RH WIND       PRES   REMARKS
MARTINSBURG    MOSUNNY   81  63  54 W10       29.88F
PETERSBURG*    MOSUNNY   81  58  44 W8        29.91F

$$

VAZ036>039-050-011900-
CENTRAL FOOTHILLS

CITY           SKY/WX    TMP DP  RH WIND       PRES   REMARKS
CHARLOTTESVILL MOSUNNY   83  63  50 SW8       29.90F
CULPEPER*      SUNNY     82  65  56 S8        29.88F
ORANGE*        MOSUNNY   86  63  45 SW10      29.90F
GORDONSVILLE*  FAIR      82  66  57 SW10      29.89F
WARRENTON*     FAIR      84  68  57 SW6       29.87F

$$

VAZ055>057-011900-
NORTH AND CENTRAL PIEDMONT

CITY           SKY/WX    TMP DP  RH WIND       PRES   REMARKS
FREDERICKSBRG* SUNNY     87  66  48 SW8       29.87F
STAFFORD*      SUNNY     82  63  53 SW7       29.92S

$$

NCZ024-NYZ072-PAZ021-071-VAZ022-071-011900-
OTHER REGIONAL OBSERVATIONS

CITY           SKY/WX    TMP DP  RH WIND       PRES   REMARKS
NEW YORK CITY  MOSUNNY   79  62  56 W5        29.81F
PHILADELPHIA   MOSUNNY   84  64  50 SW14      29.82F
PITTSBURGH     PTSUNNY   70  60  70 W8        29.93S
ROANOKE        MOSUNNY   81  62  52 VRB6      29.97F
RICHMOND       CLOUDY    86  63  45 SW9       29.90F
RALEIGH        PTSUNNY   86  69  56 VRB7      29.96F HX  90

$$

ANZ530>537-011900-
MARINE OBSERVATIONS

STATION/POSITION TIME  TEMP    WIND        PRES
                       AIR SEA DIR/SP/G
                 (UTC) (F)     (DEG/KT/KT) (MB)
THOMAS PT LIGHT  NOT AVBL
BALT KEY BRIDGE  1700   80     260/  9/ 12 1010.8S
COVE POINT       1700   76     180/  9/ 11 1012.5F
LEWISETTA        1700   81 79  240/  8/  9 1011.7F
SOLOMONS ISLAND  1700      81                N/A
PINEY POINT      1712          130/  3/  3   N/A

$$




USA.gov is the U.S. government's official web portal to all federal, state and local government web resources and services.